Home   Weather   Dubai   Past weeks

Flag for United Arab Emirates Past Weather in Dubai, Dubai, United Arab Emirates — Yesterday and Last 2 Weeks

Now
75 °F

Clear.


Feels Like: 77 °F
Forecast: 69 / 75 °F
Wind: 7 mph from Southeast

Location: Dubai International Airport

Current Time: Jan 23, 2017 at 12:32:40 am

Latest Report: Jan 23, 2017 at 12:00 am


Visibility: 10 mi

Pressure: 30.01 "Hg

Humidity: 65%

Dew Point: 63 °F

Location of DubaiLocation

Past Weather in Dubai — Graph

°F

Dubai Temperature Yesterday

Maximum temperature yesterday: 84 °F (at 3:00 pm)
Minimum temperature yesterday: 72 °F (at 7:00 am)
Average temperature yesterday: 76 °F

High & Low Weather Summary for the Past Weeks

 TemperatureHumidityPressure
High84 °F (Jan 21, 2:00 pm)100% (Jan 12, 6:00 am)30.15 "Hg (Jan 12, 6:00 am)
Low61 °F (Jan 16, 7:00 am)29% (Jan 21, 2:00 pm)29.83 "Hg (Jan 13, 3:00 pm)
Average72 °F60%30.03 "Hg
* Reported Jan 7 11:00 pm — Jan 22 11:00 pm, Dubai, Weather by CustomWeather, © 2017

Note: Actual official high and low records may vary slightly from our data, if they occured in-between our weather recording intervals... More about our weather records

Advertising

Dubai Weather History for the Previous 24 Hours

Scroll right to see more
 ConditionsComfort  
Time TempWeatherWind HumidityBarometerVisibility
11:00 pm
Sun, Jan 22
75 °FPassing clouds.5 mph65%30.01 "HgN/A
10:00 pm75 °FClear.7 mph69%30.04 "Hg5 mi
9:00 pm75 °FClear.6 mph69%30.04 "Hg5 mi
8:00 pm77 °FClear.7 mph65%30.01 "Hg5 mi
7:00 pm75 °FPassing clouds.3 mph69%30.01 "Hg4 mi
6:00 pm77 °FPassing clouds.10 mph69%30.01 "Hg4 mi
5:00 pm79 °FPassing clouds.13 mph61%30.01 "Hg5 mi
4:00 pm82 °FScattered clouds.8 mph45%29.98 "HgN/A
3:00 pm84 °FPassing clouds.9 mph43%30.01 "HgN/A
2:00 pm82 °FPassing clouds.10 mph45%30.01 "Hg5 mi
1:00 pm82 °FPassing clouds.13 mph45%30.04 "Hg5 mi
12:00 pm81 °FPassing clouds.13 mph48%30.07 "Hg5 mi
11:00 am79 °FClear.12 mph54%30.09 "Hg5 mi
10:00 am77 °FPassing clouds.14 mph57%30.12 "HgN/A
9:00 am73 °FPassing clouds.9 mph61%30.12 "HgN/A
8:00 am72 °FPassing clouds.7 mph65%30.09 "HgN/A
7:00 am72 °FPassing clouds.6 mph61%30.09 "HgN/A
6:00 am73 °FPassing clouds.5 mph47%30.07 "HgN/A
5:00 am73 °FClear.3 mph47%30.07 "Hg10 mi
4:00 am73 °FPassing clouds.5 mph50%30.07 "HgN/A
3:00 am73 °FPassing clouds.5 mph50%30.07 "HgN/A
2:00 am73 °FPassing clouds.5 mph50%30.09 "HgN/A
1:00 am75 °FPassing clouds.3 mph41%30.09 "HgN/A
12:00 am75 °FClear.8 mph41%30.07 "Hg10 mi
Weather by CustomWeather, © 2017

See weather overviewHow to use our weather pages